Le nostre stazioni meteo in Italia

Pubblicità
Il mio iltempo24.it
Cozzo Spadaro, Italia (16480): Temperatura & dewpoint: 14.01.2018 06:00:00 - 20.01.2018 06:00:00 (CET)Cozzo Spadaro, Italia (16480): velocità del vento: 14.01.2018 06:00:00 - 20.01.2018 06:00:00 (CET)Cozzo Spadaro, Italia (16480): direzione del vento: 14.01.2018 06:00:00 - 20.01.2018 06:00:00 (CET)Cozzo Spadaro, Italia (16480): reduced air pressure: 14.01.2018 06:00:00 - 20.01.2018 06:00:00 (CET)Cozzo Spadaro, Italia (16480): visibility: 14.01.2018 06:00:00 - 20.01.2018 06:00:00 (CET)Cozzo Spadaro, Italia (16480): ore di luce: 14.01.2018 06:00:00 - 20.01.2018 06:00:00 (CET)
Data & Tempo tt [°C] td [°C] ff [km/h] ff [kn] dd ppp [hPa] vv [km] sd [min]
20.01.2018 06:00:00 - - - - - - - -
20.01.2018 05:00:00 - - - - - - - -
20.01.2018 04:00:00 - - - - - - - -
20.01.2018 03:00:00 - - - - - - - -
20.01.2018 02:00:00 - - - - - - - -
20.01.2018 01:00:00 - - - - - - - -
20.01.2018 00:00:00 - - - - - - - -
19.01.2018 23:00:00 - - - - - - - -
19.01.2018 22:00:00 - - - - - - - -
19.01.2018 21:00:00 - - - - - - - -
19.01.2018 20:00:00 - - - - - - - -
19.01.2018 19:00:00 13,2 9,7 13 7 O 1015,2 15 -
19.01.2018 18:00:00 13,4 9,7 13 7 O 1015,1 25 -
19.01.2018 17:00:00 13,6 10,0 11 6 O 1015,0 25 0
19.01.2018 16:00:00 13,8 10,0 15 8 O 1015,3 25 12
19.01.2018 15:00:00 14,0 10,0 16 9 O 1016,0 25 18
19.01.2018 14:00:00 14,0 10,0 16 9 O 1016,2 25 30
19.01.2018 13:00:00 14,4 10,4 16 9 O 1017,0 25 30
19.01.2018 12:00:00 15,0 10,8 15 8 O 1017,1 25 60
19.01.2018 11:00:00 14,8 11,0 15 8 O 1018,2 25 60
19.01.2018 10:00:00 13,8 11,0 15 8 O 1018,2 25 60
19.01.2018 09:00:00 12,8 10,9 8 4 O 1018,2 25 12
19.01.2018 08:00:00 10,0 9,2 5 3 ONO 1018,3 25 0
19.01.2018 07:00:00 9,8 9,5 8 4 ONO 1018,3 25 0
19.01.2018 06:00:00 - - - - - - - -
19.01.2018 05:00:00 - - - - - - - -
19.01.2018 04:00:00 - - - - - - - -
19.01.2018 03:00:00 - - - - - - - -
19.01.2018 02:00:00 - - - - - - - -
19.01.2018 01:00:00 - - - - - - - -
19.01.2018 00:00:00 - - - - - - - -
18.01.2018 23:00:00 - - - - - - - -
18.01.2018 22:00:00 - - - - - - - -
18.01.2018 21:00:00 - - - - - - - -
18.01.2018 20:00:00 - - - - - - - -
18.01.2018 19:00:00 11,0 7,3 4 2 O 1021,2 18 -
18.01.2018 18:00:00 11,6 7,3 4 2 ONO 1021,2 25 0
18.01.2018 17:00:00 13,8 7,4 2 1 OSO 1021,1 25 36
18.01.2018 16:00:00 15,0 6,0 4 2 SO 1021,2 25 60
18.01.2018 15:00:00 15,2 6,2 4 2 SE 1020,7 25 60
18.01.2018 14:00:00 15,4 6,9 9 5 E 1021,0 25 60
18.01.2018 13:00:00 15,4 6,4 13 7 ENE 1021,1 25 60
18.01.2018 12:00:00 15,6 5,5 9 5 NNE 1021,1 25 60
18.01.2018 11:00:00 15,4 4,7 8 4 NNE 1020,8 25 60
18.01.2018 10:00:00 14,8 5,9 8 4 N 1020,1 25 60
18.01.2018 09:00:00 13,0 6,8 9 5 NNO 1019,3 25 60
18.01.2018 08:00:00 10,8 5,5 11 6 ONO 1018,4 25 24
18.01.2018 07:00:00 10,2 5,2 9 5 ONO 1018,0 20 0
18.01.2018 06:00:00 - - - - - - - -
18.01.2018 05:00:00 - - - - - - - -
18.01.2018 04:00:00 - - - - - - - -
18.01.2018 03:00:00 - - - - - - - -
18.01.2018 02:00:00 - - - - - - - -
18.01.2018 01:00:00 - - - - - - - -
18.01.2018 00:00:00 - - - - - - - -
17.01.2018 23:00:00 - - - - - - - -
17.01.2018 22:00:00 - - - - - - - -
17.01.2018 21:00:00 - - - - - - - -
17.01.2018 20:00:00 - - - - - - - -
17.01.2018 19:00:00 14,8 13,2 18 10 ONO 1010,4 10 -
17.01.2018 18:00:00 15,0 13,5 18 10 ONO 1010,6 12 0
17.01.2018 17:00:00 15,0 13,4 22 12 ONO 1010,1 15 0
17.01.2018 16:00:00 15,2 13,0 24 13 ONO 1010,1 18 0
17.01.2018 15:00:00 15,4 12,7 26 14 ONO 1010,2 18 36
17.01.2018 14:00:00 16,0 13,3 26 14 ONO 1010,2 16 36
17.01.2018 13:00:00 14,8 12,5 28 15 O 1011,3 16 0
17.01.2018 12:00:00 15,2 12,7 24 13 ONO 1012,1 18 24
17.01.2018 11:00:00 15,0 12,1 28 15 ONO 1013,5 20 30
17.01.2018 10:00:00 15,0 11,8 26 14 ONO 1013,9 20 60
17.01.2018 09:00:00 14,8 11,6 21 11 ONO 1013,9 20 60
17.01.2018 08:00:00 13,6 11,7 18 10 ONO 1014,0 20 24
17.01.2018 07:00:00 13,4 11,6 18 10 ONO 1014,7 20 0
17.01.2018 06:00:00 - - - - - - - -
17.01.2018 05:00:00 - - - - - - - -
17.01.2018 04:00:00 - - - - - - - -
17.01.2018 03:00:00 - - - - - - - -
17.01.2018 02:00:00 - - - - - - - -
17.01.2018 01:00:00 - - - - - - - -
17.01.2018 00:00:00 - - - - - - - -
16.01.2018 23:00:00 - - - - - - - -
16.01.2018 22:00:00 - - - - - - - -
16.01.2018 21:00:00 - - - - - - - -
16.01.2018 20:00:00 - - - - - - - -
16.01.2018 19:00:00 13,8 12,7 18 10 ONO 1019,3 10 -
16.01.2018 18:00:00 14,0 12,7 22 12 ONO 1019,3 15 -
16.01.2018 17:00:00 14,2 12,4 16 9 ONO 1019,3 20 6
16.01.2018 16:00:00 15,4 12,9 22 12 ONO 1019,2 25 60
16.01.2018 15:00:00 16,0 12,2 22 12 ONO 1019,8 25 60
16.01.2018 14:00:00 15,8 11,8 22 12 ONO 1020,3 25 48
16.01.2018 13:00:00 16,0 12,6 24 13 ONO 1021,1 25 60
16.01.2018 12:00:00 15,8 12,7 18 10 O 1022,2 20 60
16.01.2018 11:00:00 15,4 13,4 13 7 O 1022,6 18 60
16.01.2018 10:00:00 14,6 13,5 15 8 O 1022,3 15 60
16.01.2018 09:00:00 12,8 12,3 13 7 ONO 1022,2 12 60
16.01.2018 08:00:00 11,4 10,9 9 5 ONO 1022,3 12 18
16.01.2018 07:00:00 11,0 10,4 13 7 ONO 1022,3 12 0
16.01.2018 06:00:00 - - - - - - - -
16.01.2018 05:00:00 - - - - - - - -
16.01.2018 04:00:00 - - - - - - - -
16.01.2018 03:00:00 - - - - - - - -
16.01.2018 02:00:00 - - - - - - - -
16.01.2018 01:00:00 - - - - - - - -
16.01.2018 00:00:00 - - - - - - - -
15.01.2018 23:00:00 - - - - - - - -
15.01.2018 22:00:00 - - - - - - - -
15.01.2018 21:00:00 - - - - - - - -
15.01.2018 20:00:00 - - - - - - - -
15.01.2018 19:00:00 13,0 11,4 11 6 ONO 1022,1 12 -
15.01.2018 18:00:00 13,6 11,8 5 3 ONO 1021,9 15 -
15.01.2018 17:00:00 14,2 12,1 5 3 ONO 1021,4 20 0
15.01.2018 16:00:00 15,0 12,3 9 5 O 1021,4 20 0
15.01.2018 15:00:00 15,6 12,4 11 6 ONO 1021,4 25 0
15.01.2018 14:00:00 15,4 12,2 11 6 O 1021,7 25 0
15.01.2018 13:00:00 15,4 12,0 13 7 O 1022,1 25 18
15.01.2018 12:00:00 15,4 11,6 13 7 O 1022,2 25 6
15.01.2018 11:00:00 15,6 11,4 11 6 O 1022,7 25 36
15.01.2018 10:00:00 14,0 11,0 4 2 O 1022,1 25 6
15.01.2018 09:00:00 13,4 10,0 11 6 O 1021,6 25 0
15.01.2018 08:00:00 13,4 10,8 13 7 OSO 1021,3 20 0
15.01.2018 07:00:00 12,8 10,4 11 6 O 1021,2 20 0
15.01.2018 06:00:00 - - - - - - - -
15.01.2018 05:00:00 - - - - - - - -
15.01.2018 04:00:00 - - - - - - - -
15.01.2018 03:00:00 - - - - - - - -
15.01.2018 02:00:00 - - - - - - - -
15.01.2018 01:00:00 - - - - - - - -
15.01.2018 00:00:00 - - - - - - - -
14.01.2018 23:00:00 - - - - - - - -
14.01.2018 22:00:00 - - - - - - - -
14.01.2018 21:00:00 - - - - - - - -
14.01.2018 20:00:00 - - - - - - - -
14.01.2018 19:00:00 - - - - - - - -
14.01.2018 18:00:00 - - - - - - - -
14.01.2018 17:00:00 - - - - - - - -
14.01.2018 16:00:00 - - - - - - - -
14.01.2018 15:00:00 - - - - - - - -
14.01.2018 14:00:00 - - - - - - - -
14.01.2018 13:00:00 - - - - - - - -
14.01.2018 12:00:00 - - - - - - - -
14.01.2018 11:00:00 - - - - - - - -
14.01.2018 10:00:00 - - - - - - - -
14.01.2018 09:00:00 - - - - - - - -
14.01.2018 08:00:00 - - - - - - - -
14.01.2018 07:00:00 - - - - - - - -
14.01.2018 06:00:00 - - - - - - - -

tt = Temperatura
td = dewpoint
ff = velocità del vento
dd = direzione del vento
ppp = reduced air pressure
vv = visibility
sd = ore di luce

Stazioni seguenti

WeatherPro
AMSI
MeteoEarth